Regional Weather Roundup
Issued by NWS Green Bay, WI

Home | Current Version | Previous Version | Text Only | Print | Product List | Glossary On
Versions: 1 2 3 4 5 6 7 8 9 10 11 12 13 14 15 16 17 18 19 20 21 22 23 24 25 26 27 28 29 30 31 32 33 34 35 36 37 38 39 40 41 42 43 44 45 46 47 48 49 50
000
ASUS43 KGRB 261011
RWRGRB

NORTH-CENTRAL AND NORTHEAST WISCONSIN REGIONAL WEATHER ROUNDUP
NATIONAL WEATHER SERVICE GREEN BAY WI
500 AM CDT TUE JUL 26 2016

WIZ005-009-010>012-018-019-261100-
NORTH CENTRAL WISCONSIN

CITY           SKY/WX    TMP DP  RH WIND       PRES   REMARKS
IRONWOOD       CLEAR     61  59  94 CALM      30.00S
MANITOWISH WTR FOG       56  56 100 CALM      30.05S VSB 1/2
ARBOR VITAE    CLEAR     59  58  96 CALM      30.06R
EAGLE RIVER    FOG       56  56 100 CALM      30.05S VSB 1/4
LAND O LAKES   CLEAR     53  53  99 CALM      30.06S
RHINELANDER    CLEAR     61  59  93 W6        30.07S
PHILLIPS       CLEAR     62  61  97 S3        30.06S
ANTIGO         CLEAR     56  56  99 CALM      30.08S
TOMAHAWK       CLEAR     55  54  97 CALM      30.07S
MERRILL        CLEAR     55  55 100 CALM      30.08R FOG
$$

WIZ013-073-261100-
NORTHEAST WISCONSIN

CITY           SKY/WX    TMP DP  RH WIND       PRES   REMARKS
IRON MOUNTAIN  CLEAR     59  55  87 CALM      30.01F
MARINETTE      PTCLDY   N/A N/A N/A NW3       30.03
OCONTO         PTCLDY   N/A N/A N/A CALM      30.03S
$$

WIZ017-030-035>037-045-261100-
CENTRAL WISCONSIN

CITY           SKY/WX    TMP DP  RH WIND       PRES   REMARKS
MEDFORD        CLEAR     61  61 100 CALM      30.08S
WAUSAU         CLEAR     62  61  96 CALM      30.05F
MOSINEE        CLEAR     59  59 100 CALM      30.08R
MARSHFIELD     CLEAR     64  60  87 W5        30.07S
WISC RAPIDS    CLEAR     61  59  93 SW3       30.08S FOG
STEVENS POINT  CLEAR     57  57  99 CALM      30.07S
WAUPACA        PTCLDY    64  64  99 CALM      30.06S
SHAWANO        CLEAR     61  59  93 CALM      30.05S
CLINTONVILLE   PTCLDY    63  61  94 CALM      30.05S
WAUTOMA        CLEAR     61  59  93 CALM      30.07R
$$

WIZ038-039-048-051-261100-
FOX VALLEY

CITY           SKY/WX    TMP DP  RH WIND       PRES   REMARKS
NWS GREEN BAY  CLEAR     61  61 100 CALM      30.04R
APPLETON       CLEAR     63  61  94 NW8       30.04S
OSHKOSH        CLEAR     65  61  87 W6        30.05R
FOND DU LAC    CLEAR     64  60  87 SW6       30.07R
$$

WIZ022-050-052-261100-
EAST CENTRAL WISCONSIN

CITY           SKY/WX    TMP DP  RH WIND       PRES   REMARKS
EPHRAIM        FAIR      67  66  95 W5        30.01S
WASHINGTON ISL NOT AVBL
STURGEON BAY   CLEAR     65  64  97 CALM      30.04R
MANITOWOC      PTCLDY    66  60  81 MISG      30.04S
SHEBOYGAN      PTCLDY    62  60  93 SW5       30.05R
$$

LMZ563-521-522-541>543-261100-
LAKESHORE

STATION/POSITION TIME  TEMP    WIND        PRES    VSBY  WAVE
                       AIR SEA DIR/SP/G                  HT/PER
                 (UTC) (F)     (DEG/KT/KT) (MB)    (MI)  (FT/S)
SHEBOYGAN LKSHOR 1000   71     280/  6/  7 1017.4R
KEWAUNEE LKSHORE 0900   66     300/  5/  6 1016.1R
ALGOMA MARINA    0913          320/  6/  8   N/A
NORTHPORT PIER   0900   67     240/  4/  6 1015.9R
N MID LAKE BUOY  0950   69 69  220/  4/  4 1015.3R         1
S GREEN BAY BUOY 0930   69 74  280/  2/  2   N/A
SISTER BAY LKSHO 0921   68        CALM       N/A
CHAMBERS ISLAND  0900   67     240/  4/  6 1016.3
MENOMINEE LKSHOR 0900   68      CALM  /  3 1015.5R
$$




USA.gov is the U.S. government's official web portal to all federal, state and local government web resources and services.